SCP
0 0 0 0 0 0 0 1 2 2 1 0 1 1 0 0 0 0 0 0 0 0 0 0 0 0 0 0 0 0 0 0
0 0 0 0 0 0 0 0 1 3 1 1 1 0 0 0 0 0 0 0 0 0 0 0 0 0 0 0 0 0 0 0
0 0 0 0 0 0 0 0 0 0 2 1 1 0 0 0 0 0 0 0 0 0 0 0 0 0 0 0 0 0 0 0
0 0 0 0 0 0 0 0 0 0 0 1 1 1 1 1 0 0 0 0 0 0 0 0 0 0 0 0 0 0 0 0
0 0 0 0 0 0 0 0 0 0 0 1 1 0 1 1 1 0 0 0 0 0 0 0 0 0 0 0 0 0 0 0
0 0 0 0 0 0 0 0 0 0 0 0 0 0 0 0 0 0 0 0 0 0 0 0 0 0 0 0 0 0 0 0
0 0 0 0 0 0 0 0 0 0 0 0 0 0 0 0 0 0 0 0 0 0 0 0 0 0 0 0 0 0 0 0
0 -0 0 0 0 0 0 0 0 0 0 0 0 0 0 0 0 0 0 0 0 0 0 0 0 0 0 0 0 0 0 0
0 0 0 0 0 0 0 0 0 0 0 0 0 0 0 0 0 0 0 0 0 0 0 0 0 0 0 0 0 0 0 0
0 0 0 0 0 0 0 0 0 0 0 0 0 0 0 0 0 0 0 0 0 0 0 0 0 0 0 0 0 0 0 0
0 0 0 0 0 0 0 0 0 0 0 0 0 0 0 0 0 0 0 0 0 0 0 0 0 0 0 0 0 0 0 0
0 0 0 0 0 0 0 0 0 0 0 0 0 0 0 0 0 0 0 0 0 0 0 0 0 0 0 0 0 0 0 0
0 0 0 0 0 0 0 0 0 0 0 0 0 0 0 0 0 0 0 0 0 0 0 0 0 0 0 0 0 0 0 0
0 0 0 0 0 0 0 0 0 0 0 0 0 0 0 0 0 0 0 0 0 0 0 0 0 0 0 0 0 0 0 0
0 0 0 0 0 0 0 0 0 0 0 0 0 0 0 0 0 0 0 0 0 0 0 0 0 0 0 0 0 0 0 0
0 0 0 0 0 0 0 0 0 0 0 0 0 0 0 0 0 0 0 0 0 0 0 0 0 0 0 0 0 0 0 -0
0 0 0 0 0 0 0 0 0 0 0 0 0 0 0 0 0 0 0 0 0 0 0 0 0 0 0 0 0 0 0 -0
0 0 0 0 0 0 0 0 0 0 0 0 0 0 0 -0 0 0 0 0 -0 0 0 -0 0 0 0 0 0 -0 0 0
0 0 0 0 0 0 0 0 0 -0 0 -0 -0 -0 0 -0 0 0 0 0 0 -0 0 0 0 0 0 0 0 0 0 0
0 0 0 0 0 0 0 0 0 -0 -0 -0 -0 0 0 -0 0 0 0 0 0 -0 0 0 0 0 0 0 0 0 -0 0
Wind_Speed_500mb
38 51 37 37 30 40 24 9 1 16 19 16 13 12 14 19 19 19 19 22 25 24 39 51 44 42 43 45 43 39 40 41
26 45 44 33 29 25 17 14 13 7 14 20 19 12 13 18 15 13 17 14 18 21 28 38 46 49 50 51 52 49 44 46
3 39 38 29 23 20 14 8 13 11 5 14 16 17 18 18 19 17 16 17 19 22 26 34 43 49 51 55 55 58 62 59
14 37 39 35 30 18 15 13 7 5 7 7 15 20 15 24 20 17 22 23 23 27 28 32 41 43 50 55 59 59 65 67
24 31 35 34 22 15 12 12 10 2 4 6 11 14 8 15 18 21 25 25 26 22 21 26 30 36 44 51 54 60 67 63
41 32 15 21 9 12 14 11 13 7 11 5 5 9 11 11 12 16 21 23 26 22 25 31 35 36 42 47 51 54 57 61
12 7 19 13 7 11 15 8 12 16 9 11 11 13 15 15 17 20 17 21 28 27 30 28 35 34 33 34 37 43 49 58
16 15 12 17 17 17 15 12 7 16 13 8 10 17 23 20 20 27 30 35 35 31 30 32 31 38 36 33 33 45 52 56
10 4 7 18 16 21 22 16 20 27 26 17 12 15 22 28 27 31 36 38 31 29 29 35 35 38 35 30 31 31 38 49
22 17 14 14 19 21 21 21 18 13 16 23 30 36 28 32 35 36 38 33 35 30 35 39 41 38 37 31 29 22 26 32
24 27 28 28 37 32 43 46 27 26 17 34 52 44 44 39 42 42 43 42 44 41 40 43 43 38 33 29 25 19 27 29
20 21 20 22 29 23 28 28 31 32 22 36 44 49 42 44 49 46 35 39 41 43 52 48 42 41 34 23 22 26 31 33
22 26 27 31 35 32 30 30 31 34 41 41 45 45 41 43 45 39 44 52 44 42 50 44 43 41 32 23 24 31 35 34
39 41 40 37 34 37 37 38 39 41 41 43 50 50 49 51 56 51 50 48 52 51 53 48 38 36 29 21 25 26 27 23
37 35 29 29 33 31 31 34 45 47 48 50 50 55 44 47 50 51 48 48 48 52 42 37 36 28 23 23 30 30 28 19
19 33 37 41 43 44 46 44 48 51 58 59 56 63 68 51 52 51 54 49 60 37 34 37 24 21 28 29 29 30 24 20
30 36 40 40 44 48 49 50 53 57 58 47 39 40 36 46 48 51 49 46 43 38 29 26 31 34 30 33 30 21 17 16
25 29 26 40 41 42 44 46 48 49 56 45 42 39 52 48 52 49 34 45 52 49 29 24 24 44 39 37 27 26 19 5
41 53 59 57 54 50 56 57 50 50 56 56 56 46 45 55 59 55 40 34 31 35 36 17 30 43 40 28 23 20 12 13
54 61 67 69 69 61 49 49 52 62 51 46 43 45 59 57 31 41 47 34 27 34 25 16 42 40 38 28 16 10 16 14
Wind_Direction_500mb
204 198 180 165 149 132 135 101 206 236 272 292 295 283 273 259 280 283 263 259 260 255 243 244 247 250 252 253 260 258 257 258
197 156 161 160 163 175 175 164 90 188 276 290 284 283 297 268 281 285 309 305 280 262 254 252 248 251 253 256 258 256 253 257
141 158 153 150 148 167 198 199 228 240 260 276 296 300 299 293 273 288 300 295 284 273 260 252 251 254 258 259 255 252 253 260
129 154 150 143 131 136 188 187 175 356 358 282 287 300 284 286 288 286 292 290 291 284 273 269 262 261 263 265 260 254 253 256
142 157 162 162 158 177 199 212 206 91 192 244 331 353 286 270 287 300 300 297 289 290 287 283 285 278 274 274 269 263 260 266
116 114 87 137 192 232 200 198 195 194 201 156 60 11 2 347 313 295 296 295 299 298 290 282 290 291 288 281 273 267 265 262
124 291 277 261 220 215 193 182 221 218 225 243 262 274 290 295 308 313 318 306 301 293 290 299 302 302 281 278 274 270 264 265
36 48 208 212 231 271 228 212 290 239 226 234 261 296 315 316 292 304 313 314 303 297 294 299 304 303 302 289 273 267 268 259
64 10 234 231 252 285 301 276 289 280 277 258 272 293 301 305 302 297 306 304 298 297 306 297 303 304 294 288 282 276 268 251
341 300 272 297 279 280 259 248 240 236 270 285 297 304 288 284 289 288 294 296 299 280 317 319 308 303 296 291 285 266 254 225
4 13 358 306 305 318 282 257 272 230 296 293 299 297 293 289 292 292 293 286 293 284 296 307 316 303 291 286 274 233 228 221
349 357 350 340 343 333 335 336 317 303 275 284 302 299 296 307 299 301 295 296 287 283 292 299 309 302 291 280 259 208 213 222
330 330 329 329 324 317 314 316 313 300 294 292 284 287 291 297 297 297 298 302 298 293 290 286 298 299 291 265 242 215 207 211
312 308 308 310 310 310 318 317 310 306 307 313 297 288 287 286 290 296 298 296 292 292 285 283 289 287 270 239 219 204 189 184
293 298 306 313 326 323 324 321 317 315 300 301 308 304 297 294 290 299 301 305 313 310 281 290 282 272 242 193 175 175 174 192
280 293 293 296 297 300 309 320 321 317 309 303 288 291 298 295 297 290 301 289 292 287 285 298 292 257 186 177 178 179 195 215
281 284 290 298 301 300 301 304 312 312 315 312 301 305 308 302 309 303 300 302 294 277 274 292 285 196 190 181 174 193 198 207
293 297 292 287 284 293 296 302 308 309 306 301 303 308 308 309 304 297 313 296 303 293 301 324 270 192 184 173 180 181 189 181
287 283 280 283 285 289 289 291 293 295 301 295 305 296 314 303 300 302 300 301 276 291 275 275 237 188 174 172 179 178 151 132
277 279 283 282 284 282 279 287 289 290 292 304 307 311 312 311 300 310 314 306 277 266 268 230 191 190 147 155 181 116 147 150
Wind_Speed_850mb
38 51 37 37 30 40 24 9 1 16 19 16 13 12 14 19 19 19 19 22 25 24 39 51 44 42 43 45 43 39 40 41
26 45 44 33 29 25 17 14 13 7 14 20 19 12 13 18 15 13 17 14 18 21 28 38 46 49 50 51 52 49 44 46
3 39 38 29 23 20 14 8 13 11 5 14 16 17 18 18 19 17 16 17 19 22 26 34 43 49 51 55 55 58 62 59
14 37 39 35 30 18 15 13 7 5 7 7 15 20 15 24 20 17 22 23 23 27 28 32 41 43 50 55 59 59 65 67
24 31 35 34 22 15 12 12 10 2 4 6 11 14 8 15 18 21 25 25 26 22 21 26 30 36 44 51 54 60 67 63
41 32 15 21 9 12 14 11 13 7 11 5 5 9 11 11 12 16 21 23 26 22 25 31 35 36 42 47 51 54 57 61
12 7 19 13 7 11 15 8 12 16 9 11 11 13 15 15 17 20 17 21 28 27 30 28 35 34 33 34 37 43 49 58
16 15 12 17 17 17 15 12 7 16 13 8 10 17 23 20 20 27 30 35 35 31 30 32 31 38 36 33 33 45 52 56
10 4 7 18 16 21 22 16 20 27 26 17 12 15 22 28 27 31 36 38 31 29 29 35 35 38 35 30 31 31 38 49
22 17 14 14 19 21 21 21 18 13 16 23 30 36 28 32 35 36 38 33 35 30 35 39 41 38 37 31 29 22 26 32
24 27 28 28 37 32 43 46 27 26 17 34 52 44 44 39 42 42 43 42 44 41 40 43 43 38 33 29 25 19 27 29
20 21 20 22 29 23 28 28 31 32 22 36 44 49 42 44 49 46 35 39 41 43 52 48 42 41 34 23 22 26 31 33
22 26 27 31 35 32 30 30 31 34 41 41 45 45 41 43 45 39 44 52 44 42 50 44 43 41 32 23 24 31 35 34
39 41 40 37 34 37 37 38 39 41 41 43 50 50 49 51 56 51 50 48 52 51 53 48 38 36 29 21 25 26 27 23
37 35 29 29 33 31 31 34 45 47 48 50 50 55 44 47 50 51 48 48 48 52 42 37 36 28 23 23 30 30 28 19
19 33 37 41 43 44 46 44 48 51 58 59 56 63 68 51 52 51 54 49 60 37 34 37 24 21 28 29 29 30 24 20
30 36 40 40 44 48 49 50 53 57 58 47 39 40 36 46 48 51 49 46 43 38 29 26 31 34 30 33 30 21 17 16
25 29 26 40 41 42 44 46 48 49 56 45 42 39 52 48 52 49 34 45 52 49 29 24 24 44 39 37 27 26 19 5
41 53 59 57 54 50 56 57 50 50 56 56 56 46 45 55 59 55 40 34 31 35 36 17 30 43 40 28 23 20 12 13
54 61 67 69 69 61 49 49 52 62 51 46 43 45 59 57 31 41 47 34 27 34 25 16 42 40 38 28 16 10 16 14
Wind_Direction_850mb
204 198 180 165 149 132 135 101 206 236 272 292 295 283 273 259 280 283 263 259 260 255 243 244 247 250 252 253 260 258 257 258
197 156 161 160 163 175 175 164 90 188 276 290 284 283 297 268 281 285 309 305 280 262 254 252 248 251 253 256 258 256 253 257
141 158 153 150 148 167 198 199 228 240 260 276 296 300 299 293 273 288 300 295 284 273 260 252 251 254 258 259 255 252 253 260
129 154 150 143 131 136 188 187 175 356 358 282 287 300 284 286 288 286 292 290 291 284 273 269 262 261 263 265 260 254 253 256
142 157 162 162 158 177 199 212 206 91 192 244 331 353 286 270 287 300 300 297 289 290 287 283 285 278 274 274 269 263 260 266
116 114 87 137 192 232 200 198 195 194 201 156 60 11 2 347 313 295 296 295 299 298 290 282 290 291 288 281 273 267 265 262
124 291 277 261 220 215 193 182 221 218 225 243 262 274 290 295 308 313 318 306 301 293 290 299 302 302 281 278 274 270 264 265
36 48 208 212 231 271 228 212 290 239 226 234 261 296 315 316 292 304 313 314 303 297 294 299 304 303 302 289 273 267 268 259
64 10 234 231 252 285 301 276 289 280 277 258 272 293 301 305 302 297 306 304 298 297 306 297 303 304 294 288 282 276 268 251
341 300 272 297 279 280 259 248 240 236 270 285 297 304 288 284 289 288 294 296 299 280 317 319 308 303 296 291 285 266 254 225
4 13 358 306 305 318 282 257 272 230 296 293 299 297 293 289 292 292 293 286 293 284 296 307 316 303 291 286 274 233 228 221
349 357 350 340 343 333 335 336 317 303 275 284 302 299 296 307 299 301 295 296 287 283 292 299 309 302 291 280 259 208 213 222
330 330 329 329 324 317 314 316 313 300 294 292 284 287 291 297 297 297 298 302 298 293 290 286 298 299 291 265 242 215 207 211
312 308 308 310 310 310 318 317 310 306 307 313 297 288 287 286 290 296 298 296 292 292 285 283 289 287 270 239 219 204 189 184
293 298 306 313 326 323 324 321 317 315 300 301 308 304 297 294 290 299 301 305 313 310 281 290 282 272 242 193 175 175 174 192
280 293 293 296 297 300 309 320 321 317 309 303 288 291 298 295 297 290 301 289 292 287 285 298 292 257 186 177 178 179 195 215
281 284 290 298 301 300 301 304 312 312 315 312 301 305 308 302 309 303 300 302 294 277 274 292 285 196 190 181 174 193 198 207
293 297 292 287 284 293 296 302 308 309 306 301 303 308 308 309 304 297 313 296 303 293 301 324 270 192 184 173 180 181 189 181
287 283 280 283 285 289 289 291 293 295 301 295 305 296 314 303 300 302 300 301 276 291 275 275 237 188 174 172 179 178 151 132
277 279 283 282 284 282 279 287 289 290 292 304 307 311 312 311 300 310 314 306 277 266 268 230 191 190 147 155 181 116 147 150